Regional Weather Roundup
Issued by NWS State College, PA

Home | Current Version | Previous Version | Graphics & Text | Print | Product List | Glossary Off
Versions: 1 2 3 4 5 6 7 8 9 10 11 12 13 14 15 16 17 18 19 20 21 22 23 24 25 26 27 28 29 30 31 32 33 34 35 36 37 38 39 40 41 42 43 44 45 46 47 48 49 50

000
ASUS41 KCTP 300703
RWRCTP

REGIONAL WEATHER ROUNDUP
NATIONAL WEATHER SERVICE STATE COLLEGE PA
300 AM EDT WED JUL 30 2014

Note: "fair" indicates few or no clouds below 12,000 feet with no
significant weather and/or obstructions to visibility.

* = STATION THAT DOES NOT REPORT PRECIPITATION /E.G. RAIN...SNOW...ETC/
    THUNDER OR FOG.

PAZ002>004-007>009-013>016-020>023-029>032-300800-
WESTERN PENNSYLVANIA

CITY           SKY/WX    TMP DP  RH WIND       PRES   REMARKS
ERIE           LGT RAIN  60  54  80 S8        29.96F
MEADVILLE      MOCLDY    55  50  83 S3        30.00F
FRANKLIN*      MOCLDY    52  46  82 SW5       30.03S
NEW CASTLE       N/A     55  51  86 CALM      30.02F
BEAVER COUNTY  NOT AVBL
BUTLER*        PTCLDY    52  48  87 CALM      30.05R
PITTSBURGH INT PTCLDY    56  50  80 SW6       30.03S
PITTSBURGH     CLEAR     53  50  89 S7        30.03S
INDIANA*       CLOUDY    54  50  87 CALM      30.08S
LATROBE        CLEAR     52  52 100 SW3       30.05S
WASHINGTON CO* CLEAR     48  46  93 CALM      30.04F
$$

PAZ004>006-010>012-017>019-024>028-033>037-041-042-045-046-049>053-300800-
CENTRAL PENNSYLVANIA

CITY           SKY/WX    TMP DP  RH WIND       PRES   REMARKS
BRADFORD       CLOUDY    47  44  90 CALM      30.02F
DUBOIS         CLEAR     53  49  86 CALM      30.02F
CLEARFIELD     PTCLDY    51  50  96 CALM      30.04S FOG
JOHNSTOWN      CLEAR     51  48  89 SW6       30.05F
ALTOONA        CLEAR     51  49  92 CALM      30.06S
STATE COLLEGE  CLEAR     53  51  92 SW3       30.03S
WILLIAMSPORT   CLEAR     56  53  90 CALM      30.00S
SELINSGROVE    CLEAR     53  52  96 CALM      30.02S FOG
FT INDIANTOWN  CLEAR     53  53 100 S2        30.01S
CAPITAL CITY   CLEAR     55  52  89 W3        30.02R
HARRISBURG     PTCLDY    59  53  80 CALM      30.01S
YORK           CLEAR     51  49  92 CALM      30.02S
$$

PAZ038>040-043-044-047-048-054-055-060>062-067>071-300800-
EASTERN PENNSYLVANIA

CITY           SKY/WX    TMP DP  RH WIND       PRES   REMARKS
SCRANTON       PTCLDY    54  49  83 E6        30.01S
MOUNT POCONO   CLEAR     48  46  93 CALM      30.02F
ALLENTOWN      CLEAR     54  52  93 CALM      30.00S
QUAKERTOWN*    SUNNY     54  54 100 CALM      30.01S
READING        CLEAR     58  53  84 NW3       30.00S
LANCASTER      CLEAR     56  52  86 W6        30.01S
COATESVILLE    MOSUNNY   55  55 100 NW6       30.01S
POTTSTOWN      CLEAR     55  53  93 CALM      30.01S
BLUE BELL      CLEAR     55  55 100 CALM      29.98F
DOYLESTOWN     CLEAR     56  55  97 CALM      29.99S
WILLOW GROVE   NOT AVBL
NORTH PHILA    PTCLDY    63  54  72 NW5       29.99F
PHILADELPHIA   PTCLDY    65  53  65 NW6       29.99S
$$



USA.gov is the U.S. government's official web portal to all federal, state and local government web resources and services.